Location: Viterbo
(42.4170°N, 12.1000°E)
Time: 22:47:00
(UTC+02:00)

ISS - Visible Passes

Search period start: 18 October 2019 00:00
Search period end: 27 October 2019 23:00
Orbit: 411 x 421 km, 51.6° (Epoch: 19 October)

Date Brightness Start Highest point End Pass type
(mag) Time Alt. Az. Time Alt. Az. Time Alt. Az.
22 Oct -0.6 06:49:56 10° SSE 06:51:45 14° SE 06:53:36 10° E visible
24 Oct -2.2 06:47:54 10° SSW 06:51:02 37° SE 06:54:10 10° ENE visible
25 Oct -1.4 05:59:56 10° S 06:02:35 22° SE 06:05:13 10° E visible
26 Oct -0.8 05:13:53 13° SE 05:14:10 13° SE 05:15:45 10° ESE visible
26 Oct -3.8 06:47:06 10° WSW 06:50:28 81° NNW 06:53:50 10° NE visible
27 Oct -3.3 05:00:52 38° SSW 05:01:53 59° SE 05:05:12 10° ENE visible
